TimeEST,TemperatureF,Dew PointF,Humidity,Sea Level PressureIn,VisibilityMPH,Wind Direction,Wind SpeedMPH,Gust SpeedMPH,PrecipitationIn,Events,Conditions,WindDirDegrees,DateUTC
12:53 AM,35.1,32.0,89,29.60,10.0,West,8.1,-,N/A,,Overcast,280,2013-02-28 05:53:00
1:53 AM,35.1,32.0,89,29.60,10.0,West,5.8,-,N/A,,Overcast,270,2013-02-28 06:53:00
2:35 AM,35.6,32.0,87,29.54,8.0,West,5.8,-,N/A,Rain,Light Rain,270,2013-02-28 07:35:00
2:53 AM,34.0,32.0,92,29.58,8.0,West,4.6,-,N/A,,Overcast,270,2013-02-28 07:53:00
3:25 AM,33.8,32.0,93,29.54,6.0,West,6.9,-,N/A,Snow,Light Snow,260,2013-02-28 08:25:00
3:49 AM,33.8,32.0,93,29.54,9.0,West,11.5,-,N/A,Snow,Light Snow,280,2013-02-28 08:49:00
3:53 AM,34.0,32.0,92,29.58,8.0,West,10.4,-,N/A,Snow,Light Snow,280,2013-02-28 08:53:00
4:53 AM,34.0,32.0,92,29.58,8.0,West,8.1,-,N/A,,Overcast,280,2013-02-28 09:53:00
5:09 AM,33.8,30.2,87,29.53,5.0,WNW,10.4,-,N/A,,Overcast,290,2013-02-28 10:09:00
5:50 AM,33.8,30.2,87,29.54,2.5,West,6.9,-,N/A,Snow,Light Snow,270,2013-02-28 10:50:00
5:53 AM,33.1,30.9,92,29.59,2.5,West,9.2,-,N/A,Snow,Light Snow,270,2013-02-28 10:53:00
6:06 AM,33.8,30.2,87,29.54,4.0,West,9.2,-,N/A,Snow,Light Snow,280,2013-02-28 11:06:00
6:49 AM,33.8,30.2,87,29.54,10.0,WNW,9.2,-,N/A,,Overcast,290,2013-02-28 11:49:00
7:53 AM,33.1,30.0,89,29.59,10.0,West,6.9,-,N/A,,Partly Cloudy,270,2013-02-28 12:53:00
8:14 AM,32.0,28.4,87,29.55,10.0,West,8.1,-,N/A,,Scattered Clouds,270,2013-02-28 13:14:00
8:25 AM,32.0,28.4,87,29.56,10.0,WNW,8.1,-,N/A,,Mostly Cloudy,290,2013-02-28 13:25:00
8:49 AM,33.8,28.4,81,29.55,10.0,WNW,11.5,-,N/A,,Overcast,290,2013-02-28 13:49:00
9:53 AM,34.0,27.0,75,29.60,10.0,West,12.7,-,N/A,,Scattered Clouds,280,2013-02-28 14:53:00
10:53 AM,35.1,26.1,70,29.58,10.0,Variable,6.9,-,N/A,,Overcast,0,2013-02-28 15:53:00
11:37 AM,35.6,26.6,70,29.54,10.0,West,8.1,-,N/A,,Overcast,260,2013-02-28 16:37:00
11:53 AM,35.1,25.0,67,29.58,10.0,West,9.2,-,N/A,,Overcast,280,2013-02-28 16:53:00
12:09 PM,35.6,24.8,65,29.53,10.0,WNW,11.5,-,N/A,,Overcast,290,2013-02-28 17:09:00
12:45 PM,35.6,26.6,70,29.52,10.0,West,11.5,-,N/A,,Overcast,270,2013-02-28 17:45:00
12:53 PM,35.1,24.1,64,29.57,10.0,West,11.5,-,N/A,,Overcast,280,2013-02-28 17:53:00
1:53 PM,36.0,24.1,62,29.56,10.0,West,10.4,-,N/A,,Overcast,260,2013-02-28 18:53:00
2:53 PM,36.0,23.0,59,29.56,10.0,WNW,6.9,-,N/A,,Mostly Cloudy,290,2013-02-28 19:53:00
3:53 PM,36.0,24.1,62,29.56,10.0,WNW,9.2,-,N/A,,Overcast,300,2013-02-28 20:53:00
4:53 PM,35.1,25.0,67,29.56,8.0,NW,10.4,-,N/A,Snow,Light Snow,320,2013-02-28 21:53:00
5:03 PM,33.8,26.6,75,29.52,1.8,NNW,9.2,-,N/A,Snow,Light Snow,330,2013-02-28 22:03:00
5:14 PM,33.8,28.4,81,29.53,2.0,NNW,5.8,-,N/A,Snow,Light Snow,330,2013-02-28 22:14:00
5:33 PM,32.0,28.4,87,29.53,1.2,NW,6.9,-,N/A,Snow,Light Snow,310,2013-02-28 22:33:00
5:53 PM,32.0,28.0,85,29.59,1.2,WNW,6.9,-,N/A,Snow,Light Snow,300,2013-02-28 22:53:00
6:11 PM,30.2,28.4,93,29.54,2.5,NW,4.6,-,N/A,Snow,Light Snow,310,2013-02-28 23:11:00
6:18 PM,30.2,28.4,93,29.54,3.0,WNW,6.9,-,N/A,Snow,Light Snow,300,2013-02-28 23:18:00
6:29 PM,30.2,28.4,93,29.55,2.0,WNW,6.9,-,N/A,Snow,Light Snow,300,2013-02-28 23:29:00
6:36 PM,30.2,28.4,93,29.55,1.2,WNW,8.1,-,N/A,Snow,Light Snow,300,2013-02-28 23:36:00
6:46 PM,30.2,28.4,93,29.55,3.0,WNW,6.9,-,N/A,Snow,Light Snow,300,2013-02-28 23:46:00
6:53 PM,30.9,28.0,89,29.60,7.0,NW,6.9,-,N/A,Snow,Light Snow,310,2013-02-28 23:53:00
7:53 PM,30.9,28.0,89,29.61,10.0,NW,6.9,-,N/A,,Mostly Cloudy,310,2013-03-01 00:53:00
8:16 PM,30.2,28.4,93,29.56,6.0,WNW,8.1,-,N/A,,Overcast,300,2013-03-01 01:16:00
8:46 PM,30.2,28.4,93,29.57,6.0,WNW,6.9,-,N/A,,Overcast,290,2013-03-01 01:46:00
8:53 PM,30.9,28.0,89,29.62,8.0,WNW,8.1,-,N/A,,Overcast,290,2013-03-01 01:53:00
9:00 PM,30.2,28.4,93,29.57,5.0,WNW,8.1,-,N/A,Snow,Light Snow,290,2013-03-01 02:00:00
9:14 PM,30.2,28.4,93,29.57,6.0,WNW,9.2,-,N/A,,Overcast,290,2013-03-01 02:14:00
9:19 PM,30.2,28.4,93,29.57,7.0,WNW,9.2,-,N/A,,Overcast,290,2013-03-01 02:19:00
9:42 PM,30.2,28.4,93,29.58,4.0,WNW,8.1,-,N/A,Snow,Light Snow,290,2013-03-01 02:42:00
9:51 PM,30.2,28.4,93,29.58,5.0,WNW,9.2,-,N/A,Snow,Light Snow,290,2013-03-01 02:51:00
10:07 PM,30.2,28.4,93,29.57,4.0,WNW,6.9,-,N/A,Snow,Light Snow,300,2013-03-01 03:07:00
10:20 PM,30.2,28.4,93,29.57,4.0,NW,6.9,-,N/A,Snow,Light Snow,310,2013-03-01 03:20:00
10:49 PM,32.0,28.4,87,29.58,9.0,NW,11.5,-,N/A,,Overcast,320,2013-03-01 03:49:00
10:53 PM,32.0,28.0,85,29.62,10.0,NW,6.9,17.3,N/A,,Overcast,310,2013-03-01 03:53:00
11:53 PM,30.9,28.0,89,29.62,10.0,NW,8.1,-,N/A,,Overcast,320,2013-03-01 04:53:00